Temperature
22 21 20 20 19 19 21 23 24 24 24 25 25 24 23 22 22 21 21 21 21 20 20 19 19 19 20 20 20 20 20 19 19 19 19 19 19 19 19 18 18 18 18 18 18 18 18 18 18
22 21 20 20 19 21 22 23 24 24 24 25 24 24 22 21 21 21 20 21 21 21 20 20 19 19 20 20 20 20 19 19 19 19 19 19 19 19 18 18 18 18 18 18 18 18 18 18 18
22 21 21 19 20 21 23 24 24 24 25 25 24 23 22 21 21 21 21 21 21 21 20 20 20 20 20 20 20 19 19 19 19 19 19 19 19 18 18 18 18 18 18 18 18 18 18 18 17
22 21 21 19 22 22 23 24 24 24 25 25 24 22 22 21 22 22 21 21 21 21 20 20 20 20 20 20 19 19 19 19 19 19 19 18 18 18 18 18 18 18 18 18 18 18 18 17 17
22 21 19 20 21 22 23 24 24 24 24 24 23 22 21 21 22 22 22 21 21 21 20 20 20 20 20 19 19 19 19 19 19 19 18 18 18 18 18 18 18 18 18 18 18 17 17 17 17
22 19 19 20 22 23 24 25 24 24 24 24 23 21 20 21 22 22 22 21 21 21 20 20 20 20 20 19 19 19 19 19 19 18 18 18 18 18 18 18 18 18 18 18 17 17 17 17 17
21 18 20 21 22 23 25 25 24 24 23 24 23 20 19 20 21 22 21 21 21 21 20 20 20 20 19 19 19 19 19 19 18 18 18 18 18 18 18 18 18 18 18 17 17 17 17 17 17
22 19 21 20 22 24 25 25 25 24 24 24 24 21 20 20 21 21 21 21 20 20 20 20 20 19 19 19 19 19 19 18 18 18 18 18 18 18 18 18 18 18 18 17 17 17 17 17 17
22 19 20 21 23 24 25 25 25 25 24 24 23 23 23 21 20 20 20 20 20 20 20 20 20 19 19 19 19 19 18 18 18 18 18 18 18 18 18 18 18 18 18 17 17 17 17 17 17
22 19 21 22 23 24 25 25 25 24 23 23 23 23 22 21 20 20 20 20 20 20 20 20 20 19 19 19 18 18 18 18 18 18 18 18 18 18 18 18 18 17 17 17 17 17 17 17 17
21 21 22 24 25 25 25 25 25 24 23 23 23 22 22 21 20 21 21 21 20 20 20 20 19 19 19 19 18 18 18 18 18 18 18 18 18 18 18 18 18 17 17 17 17 17 17 17 17
21 22 24 25 26 25 25 25 24 24 25 26 25 25 23 21 21 21 21 21 20 20 20 20 19 19 19 19 19 18 18 18 18 18 18 18 18 18 18 18 18 18 17 17 17 17 17 17 17
23 23 25 26 26 25 25 24 24 24 25 25 24 23 23 22 22 21 21 21 21 20 20 20 20 19 19 19 18 18 18 18 18 18 18 18 18 18 18 18 18 17 17 17 17 17 17 17 17
24 24 24 25 25 25 24 24 24 24 25 24 24 23 22 22 21 21 20 20 20 20 20 20 20 19 19 19 18 18 18 18 18 18 18 18 18 18 18 17 17 17 17 17 17 17 17 17 17
24 23 23 24 25 25 25 24 23 24 24 23 22 22 21 21 21 21 21 21 21 20 20 20 20 19 19 19 18 18 18 18 18 18 18 18 17 17 17 17 17 17 17 17 17 17 17 17 17
23 23 23 24 24 25 25 24 23 23 23 22 21 21 21 21 21 21 21 21 20 20 20 20 19 19 19 19 18 18 18 18 18 18 18 17 17 17 17 17 17 17 17 17 17 17 17 17 17
21 22 23 24 24 25 24 24 23 23 22 21 21 21 21 21 21 21 21 20 20 20 20 19 19 19 19 19 18 18 18 18 18 18 17 17 17 17 17 17 17 17 17 17 17 17 17 17 17
22 23 23 23 24 24 23 22 22 22 22 21 21 21 21 21 21 21 20 20 20 19 19 19 19 18 18 18 18 18 17 17 17 17 17 17 17 17 17 17 17 17 17 17 17 17 17 17 17
23 23 22 22 24 23 22 22 21 21 21 21 21 21 21 21 21 20 20 20 20 19 19 19 18 18 18 18 18 18 17 17 17 17 17 17 17 17 17 17 17 17 17 17 17 17 17 16 16
22 22 22 22 23 23 22 22 21 21 21 21 21 21 21 21 21 20 20 20 19 19 19 19 18 18 18 18 18 18 18 17 17 17 17 17 17 17 17 17 17 17 17 17 17 17 16 16 16
22 22 22 23 23 22 23 22 21 21 21 21 21 21 21 21 21 20 20 20 20 19 19 19 18 18 18 18 18 17 17 17 17 17 17 17 17 17 17 17 17 17 17 17 17 17 16 16 16
21 22 23 23 22 20 22 21 22 20 20 20 21 21 21 21 21 21 20 20 20 19 19 19 18 18 18 18 17 17 17 17 17 17 17 17 17 17 17 17 17 17 17 16 16 16 16 16 16
22 23 23 22 21 20 20 21 20 20 20 20 20 21 21 21 21 21 21 20 20 19 19 19 18 18 18 18 17 17 17 17 17 17 17 17 17 17 17 17 17 17 16 16 16 16 16 16 16
23 22 20 18 18 20 21 20 20 19 20 20 20 20 21 21 21 21 21 20 20 19 19 18 18 18 17 17 17 17 17 17 17 17 17 17 17 17 17 17 17 16 16 16 16 16 16 16 16
23 20 19 20 19 19 19 19 19 20 20 20 20 20 20 20 20 21 20 20 20 19 19 18 18 18 17 17 17 17 17 17 17 17 17 17 17 17 17 17 17 17 16 16 16 16 16 16 16
21 20 19 20 20 19 19 19 19 20 20 20 20 20 20 20 20 20 20 20 20 19 19 18 18 18 17 17 17 17 17 17 17 17 17 17 17 17 17 17 17 17 16 16 16 16 16 16 16
21 20 19 18 19 19 19 19 20 20 19 19 19 19 19 20 20 20 20 20 19 19 19 18 18 18 17 17 17 17 17 17 17 17 17 17 17 17 17 17 17 16 16 16 16 16 16 16 16
21 18 17 17 18 20 20 20 19 20 19 19 18 18 18 19 20 20 20 20 19 19 18 18 18 17 17 17 17 17 17 17 17 17 17 17 17 17 17 17 16 16 16 16 16 16 16 16 16
20 19 17 16 17 18 20 20 20 19 19 18 18 18 18 19 19 19 19 19 19 19 18 18 18 17 17 17 16 16 16 16 16 17 16 16 17 17 16 16 16 16 16 16 16 16 16 16 16
21 19 17 19 18 17 18 19 20 18 18 18 18 18 19 19 19 19 19 19 18 18 18 18 17 17 17 17 17 16 16 16 16 16 16 16 16 16 16 16 16 16 16 16 16 16 16 16 16
Wind_Speed
4 4 3 1 3 5 3 3 2 2 2 1 3 4 6 4 3 3 4 12 17 15 16 20 20 19 19 19 18 18 18 18 18 18 17 17 16 16 15 15 15 15 15 15 15 15 16 16 16
4 3 1 2 4 4 3 3 2 2 1 2 4 4 5 3 4 8 7 11 17 15 15 18 20 20 19 18 18 18 18 17 17 17 17 16 16 15 15 15 15 15 15 15 15 15 16 16 16
3 2 3 4 3 2 2 3 0 2 1 1 3 4 4 3 6 7 8 16 15 13 15 19 21 20 19 19 18 17 17 17 17 16 16 16 15 15 15 15 15 15 15 15 15 15 15 15 14
2 3 4 5 1 3 4 3 1 1 2 3 3 4 4 3 6 8 15 17 16 13 15 19 21 20 19 18 18 17 17 16 16 16 15 15 15 15 14 14 14 14 14 14 15 15 14 14 13
3 4 5 3 3 4 4 4 4 2 0 1 3 4 3 4 10 16 17 17 16 12 13 18 21 20 19 18 18 17 16 16 16 15 14 14 14 14 14 14 14 14 14 14 14 14 13 12 12
4 4 4 2 5 4 3 3 4 2 1 1 3 4 2 4 11 15 14 14 14 13 12 17 21 20 19 18 18 17 16 16 15 15 15 14 14 14 13 13 13 13 13 13 12 12 11 10 10
4 4 2 2 4 5 1 3 3 3 2 3 4 5 3 5 9 13 12 12 12 11 10 11 16 18 19 18 18 17 16 16 15 15 15 14 14 13 13 12 12 12 12 11 11 10 9 9 9
5 4 1 2 3 4 2 2 2 3 3 3 5 7 6 8 11 12 12 11 11 9 9 8 11 14 15 16 18 18 17 16 15 15 14 14 13 13 12 11 11 11 10 10 10 9 9 8 8
4 4 2 4 4 4 1 1 1 2 4 3 2 3 6 17 16 15 14 11 11 11 8 8 8 10 12 13 16 17 17 16 15 14 14 13 10 10 10 10 10 10 9 9 8 8 8 7 7
4 3 7 5 5 4 3 2 3 2 2 2 3 6 16 19 18 18 17 17 16 14 11 8 9 8 10 12 12 12 12 13 12 11 11 10 10 9 8 9 9 9 8 7 7 7 7 7 6
6 6 5 6 7 5 3 3 5 6 5 8 9 15 20 19 17 17 16 16 15 15 13 10 9 8 8 6 8 8 8 9 10 11 11 11 9 7 6 5 6 6 6 5 6 6 6 6 5
5 7 6 6 4 3 4 4 4 7 8 6 12 20 21 21 19 18 17 15 13 14 14 11 10 8 7 6 6 7 7 7 7 9 11 10 6 5 4 4 4 4 5 5 5 4 5 5 5
5 6 6 7 7 5 4 4 3 4 3 8 14 17 19 19 16 12 11 12 12 13 13 12 11 9 7 6 6 7 6 7 8 9 10 10 6 4 4 3 3 4 4 4 3 3 3 3 4
4 5 7 7 5 2 3 2 3 4 7 12 16 16 16 15 13 11 12 13 14 14 13 12 12 10 8 7 6 6 7 8 9 9 10 11 8 6 4 3 3 3 4 4 3 3 3 2 3
3 4 7 4 2 1 2 1 3 3 10 12 13 12 11 10 11 13 14 13 14 13 12 12 12 11 10 9 7 7 7 8 7 8 10 11 10 9 6 4 3 3 4 4 4 3 3 3 3
3 3 4 6 3 2 2 4 5 6 11 10 10 11 10 10 11 11 11 10 11 11 11 12 13 12 11 9 7 6 7 8 7 9 10 11 11 10 7 4 3 4 5 4 3 3 3 2 2
5 2 3 6 3 2 1 5 4 5 10 10 10 10 10 9 9 9 10 11 11 12 12 13 11 13 12 10 7 6 6 7 8 9 9 10 11 11 9 5 5 6 4 3 2 2 2 3 2
2 1 3 5 4 2 2 4 3 4 7 9 7 7 7 9 9 8 9 11 12 11 12 12 11 11 11 8 6 5 5 5 7 8 10 11 11 11 9 6 6 6 4 3 2 3 2 2 2
3 3 6 7 5 1 2 3 3 3 5 6 6 7 7 7 6 7 9 10 11 11 11 12 11 10 10 8 8 7 7 6 6 6 10 12 12 12 10 6 6 5 5 5 5 3 3 2 2
4 4 6 7 3 0 1 3 2 3 6 6 7 8 7 5 4 7 9 10 11 12 11 11 12 12 12 10 8 6 6 5 5 5 7 11 12 12 10 8 6 6 5 5 5 4 3 2 2
5 6 6 5 5 4 2 4 3 3 2 3 4 4 4 7 7 7 9 10 10 11 12 12 13 12 12 11 7 6 4 3 3 4 5 7 11 12 10 10 7 6 6 6 5 5 5 3 1
6 7 7 4 0 3 1 2 5 3 5 5 4 3 4 5 6 7 8 9 10 10 10 10 10 10 11 12 11 11 8 7 6 5 5 6 9 10 11 10 9 7 6 6 6 5 4 5 3
8 2 3 2 4 0 2 2 7 4 5 7 5 4 3 4 7 7 8 8 7 7 8 8 9 9 10 10 12 12 8 6 5 5 7 7 6 8 10 10 8 7 6 6 6 5 5 4 4
5 6 7 6 5 1 2 2 6 5 7 5 4 3 3 4 5 6 5 6 6 6 6 7 8 9 10 10 10 11 11 9 8 8 8 6 5 5 7 8 7 7 6 6 6 6 6 5 4
5 6 4 4 3 5 2 2 8 7 6 5 4 3 3 3 5 6 6 6 6 7 7 7 8 9 10 11 11 11 10 10 11 9 9 8 5 5 7 7 7 6 6 7 6 6 6 6 5
7 10 8 5 5 4 2 5 7 4 3 1 1 3 3 4 4 5 6 6 6 7 7 7 8 8 9 10 10 10 9 8 7 8 8 8 7 7 8 8 8 7 8 7 6 5 5 5 5
8 6 8 8 4 1 4 6 8 1 2 3 3 4 3 4 5 5 5 5 5 6 6 7 7 7 7 8 8 9 9 9 8 8 7 6 6 6 8 8 8 7 7 7 7 5 6 6 6
7 10 7 7 7 2 4 5 5 5 2 1 3 3 2 3 4 5 5 5 4 4 4 5 6 6 6 6 7 8 8 8 8 7 8 7 7 6 8 8 7 7 7 7 6 5 5 6 5
5 6 6 6 6 7 3 7 5 6 4 4 4 4 3 4 4 4 3 3 4 4 4 4 5 5 5 6 6 7 8 8 8 8 8 8 7 7 8 8 8 8 7 7 6 6 6 6 5
5 7 8 7 4 5 5 7 4 4 3 5 4 3 3 4 4 4 3 3 3 3 3 3 4 5 5 5 6 7 7 8 8 8 8 8 7 7 7 7 7 7 7 7 7 7 7 7 7
Wind_Direction
192 155 142 127 60 50 18 315 301 348 3 26 121 129 133 137 170 175 122 137 136 143 149 149 146 140 135 132 129 126 125 125 125 125 126 126 126 126 126 124 121 118 114 112 110 110 111 112 112
141 146 127 70 72 53 334 307 333 323 132 95 80 87 90 80 80 111 128 140 139 142 145 149 148 143 139 136 134 132 130 128 129 129 128 128 128 128 127 125 123 120 117 116 115 114 114 114 115
149 152 90 70 83 152 249 280 261 1 36 46 78 62 84 118 126 136 145 141 138 141 144 153 150 147 143 141 138 136 134 133 132 132 131 131 131 130 127 125 123 121 119 118 118 118 117 117 117
119 60 54 64 58 227 223 235 191 31 9 41 94 82 69 76 139 140 140 142 140 141 145 155 152 150 147 145 143 141 139 137 136 135 134 134 133 130 128 126 125 123 121 119 118 119 119 118 119
68 76 55 27 287 259 239 217 176 178 213 88 107 107 63 23 114 132 142 145 145 143 147 156 154 152 151 149 147 145 143 142 140 138 136 134 134 133 130 128 126 124 122 119 118 118 118 118 119
57 66 71 337 296 287 270 204 167 178 167 126 110 106 61 103 129 140 143 144 146 147 147 155 156 155 155 154 152 150 148 147 145 143 140 137 136 135 134 131 129 126 124 120 118 117 115 113 113
104 93 128 263 298 307 300 139 146 154 180 183 135 119 126 143 143 139 136 137 142 145 145 151 157 159 159 159 156 155 154 153 150 146 144 141 140 138 135 133 132 128 126 123 121 117 113 111 114
127 101 85 267 269 287 296 120 130 148 188 134 132 155 178 166 143 131 130 135 142 145 146 144 151 155 159 161 160 159 158 156 153 150 148 146 144 143 140 136 136 132 129 126 124 120 115 113 117
102 77 222 226 211 255 260 91 66 150 136 128 141 168 156 141 141 138 140 145 155 159 153 149 148 150 155 159 166 162 161 160 156 156 154 146 137 137 138 142 140 135 132 128 124 120 115 108 113
108 157 229 224 212 238 258 200 178 153 161 159 95 99 131 145 153 157 161 165 170 171 169 159 156 152 154 165 163 157 156 157 152 151 144 135 133 137 139 147 143 137 132 127 121 117 106 96 98
167 203 240 249 236 239 246 228 169 155 213 209 178 154 152 158 165 170 172 173 175 173 173 168 162 158 158 154 150 145 142 144 144 145 140 137 133 134 129 130 128 123 116 102 100 96 94 98 108
193 243 240 259 248 232 217 205 180 188 224 206 166 158 160 169 176 178 176 175 173 175 178 171 165 159 156 148 149 143 142 144 145 149 148 144 137 132 133 128 122 111 103 96 93 94 95 103 118
222 265 265 258 275 247 220 208 200 239 221 128 140 156 170 177 181 179 174 172 172 178 180 174 168 164 157 149 156 155 153 155 154 156 160 158 152 148 147 142 134 126 121 116 108 101 101 107 121
245 263 286 289 283 250 184 208 167 237 144 138 152 168 177 180 179 174 172 177 180 181 181 176 173 169 161 161 162 161 163 160 160 166 171 169 165 161 158 153 149 144 141 132 125 115 110 113 122
294 304 320 312 308 269 120 0 232 199 142 150 162 168 173 179 180 186 183 181 181 180 177 178 176 169 168 167 170 166 168 166 168 175 177 177 175 171 167 162 163 160 150 135 119 102 100 107 115
11 20 332 307 340 352 121 252 255 164 152 163 169 172 179 188 191 189 180 175 173 171 173 179 183 177 176 173 169 166 172 173 176 179 179 183 184 179 169 169 175 163 148 136 120 111 102 97 108
29 23 302 309 325 34 100 255 260 170 165 176 181 182 184 187 192 186 178 172 170 172 174 180 184 179 180 178 171 168 174 177 179 180 179 185 186 183 174 176 174 159 147 139 138 113 123 126 122
231 282 298 289 293 347 269 261 262 198 184 186 188 192 190 199 199 178 173 171 170 174 177 179 180 180 177 172 167 163 168 179 179 182 182 182 185 184 178 177 169 159 147 143 130 120 97 114 130
187 243 277 271 283 298 263 269 273 207 193 198 198 202 208 213 186 163 166 168 168 173 178 179 178 177 173 174 179 181 185 185 186 186 184 182 184 182 178 175 165 163 163 163 150 129 116 105 116
204 268 283 296 338 184 295 306 281 203 214 211 208 210 209 199 173 169 166 170 174 175 178 183 181 180 179 182 183 177 169 177 185 179 178 183 183 182 184 173 170 167 157 154 155 142 129 117 123
229 220 245 267 340 16 42 338 309 273 271 256 237 223 205 192 183 178 175 178 174 178 183 189 186 182 181 175 164 153 136 131 159 172 178 186 184 183 180 175 169 169 168 172 172 159 149 150 136
251 230 221 235 70 303 27 277 288 293 295 264 249 236 213 195 176 174 174 175 178 182 183 189 186 184 181 174 172 171 177 180 185 181 180 180 185 183 178 174 172 171 172 175 179 171 158 148 157
217 200 181 194 161 88 9 148 286 320 279 266 252 231 207 184 173 176 176 175 173 170 175 183 179 181 180 180 179 180 182 181 169 167 173 181 184 182 178 176 173 173 176 179 172 164 163 160 161
184 75 57 51 81 142 255 165 272 253 242 266 246 214 192 176 163 160 152 151 155 156 169 174 177 181 178 181 183 183 181 173 166 172 177 181 181 180 178 175 175 177 176 180 178 171 170 171 162
129 100 36 7 22 247 270 202 250 260 254 243 232 199 181 158 150 150 149 154 162 169 175 176 179 189 186 185 189 189 185 179 181 181 182 180 181 187 186 181 178 178 180 179 172 170 176 175 170
170 146 158 187 212 264 316 237 258 280 295 314 154 158 143 146 152 156 160 165 171 175 177 180 182 187 187 190 192 188 185 185 189 186 183 187 192 193 184 182 182 181 179 178 172 174 183 179 181
142 172 158 132 139 100 288 288 304 341 23 46 102 116 131 158 158 156 158 165 166 170 179 183 184 188 187 191 192 189 188 187 188 184 184 187 188 188 182 182 182 183 179 178 173 180 186 180 187
143 141 109 125 143 195 289 283 262 283 277 172 139 143 144 152 152 157 165 168 161 162 169 174 177 185 188 185 189 192 193 190 188 183 187 189 189 183 178 180 180 181 181 179 177 180 187 185 191
115 104 109 111 142 151 207 265 239 234 218 188 183 170 167 162 156 148 147 137 129 135 149 159 167 169 177 185 189 187 191 188 184 187 190 189 185 176 180 181 179 180 183 181 181 191 189 193 198
146 150 143 144 174 159 166 254 293 247 200 170 168 150 145 140 138 130 124 116 117 122 132 145 153 163 175 184 190 191 186 178 179 184 185 182 181 177 180 178 178 184 186 184 186 199 197 197 200
Height
1491 1490 1491 1492 1495 1502 1504 1496 1489 1487 1485 1484 1485 1486 1487 1490 1495 1499 1495 1497 1502 1506 1510 1514 1517 1520 1522 1524 1526 1527 1529 1531 1532 1534 1535 1537 1538 1539 1540 1542 1543 1544 1545 1546 1547 1547 1548 1549 1550
1491 1490 1492 1493 1500 1512 1506 1493 1489 1487 1486 1485 1486 1487 1488 1489 1490 1491 1493 1498 1503 1507 1511 1515 1518 1521 1523 1525 1527 1529 1531 1532 1534 1535 1537 1538 1540 1541 1542 1543 1545 1546 1547 1548 1549 1550 1551 1552 1553
1491 1491 1493 1495 1503 1509 1502 1491 1487 1485 1486 1486 1487 1488 1489 1490 1491 1492 1495 1499 1504 1508 1512 1516 1519 1522 1524 1526 1528 1530 1532 1534 1536 1537 1539 1540 1542 1543 1544 1545 1547 1548 1549 1550 1551 1552 1553 1554 1555
1491 1493 1494 1499 1502 1498 1493 1488 1486 1485 1486 1486 1487 1489 1491 1492 1493 1494 1497 1501 1505 1509 1513 1517 1520 1523 1525 1528 1530 1532 1534 1535 1537 1539 1541 1542 1543 1545 1546 1547 1548 1549 1551 1552 1553 1554 1556 1557 1558
1492 1493 1499 1505 1501 1493 1488 1486 1485 1486 1486 1487 1488 1490 1492 1493 1494 1496 1499 1503 1506 1510 1514 1518 1521 1524 1526 1529 1531 1533 1535 1537 1539 1541 1542 1544 1545 1546 1548 1549 1550 1552 1553 1554 1555 1557 1558 1559 1560
1493 1494 1507 1509 1500 1490 1485 1484 1485 1486 1487 1488 1489 1491 1493 1494 1495 1498 1501 1504 1508 1511 1515 1518 1522 1525 1527 1530 1532 1534 1536 1538 1540 1542 1544 1545 1547 1548 1550 1551 1552 1554 1555 1556 1557 1559 1560 1561 1563
1494 1499 1505 1504 1500 1492 1485 1484 1485 1486 1487 1488 1489 1491 1492 1494 1496 1499 1502 1506 1509 1513 1516 1519 1522 1525 1528 1530 1533 1535 1537 1539 1541 1543 1545 1547 1548 1550 1551 1553 1554 1556 1557 1558 1559 1561 1562 1563 1565
1492 1498 1502 1504 1500 1493 1485 1484 1484 1486 1486 1488 1489 1490 1491 1493 1496 1499 1503 1507 1510 1513 1516 1519 1522 1525 1528 1531 1533 1536 1538 1540 1542 1544 1546 1548 1550 1551 1553 1554 1556 1557 1559 1560 1561 1562 1564 1565 1566
1493 1502 1507 1500 1496 1490 1484 1484 1484 1484 1485 1487 1488 1488 1489 1492 1495 1499 1503 1506 1510 1513 1516 1519 1522 1525 1528 1531 1534 1536 1539 1541 1543 1545 1547 1549 1551 1553 1554 1556 1557 1559 1560 1561 1563 1564 1565 1567 1568
1492 1503 1498 1489 1486 1484 1482 1482 1484 1484 1485 1486 1487 1488 1489 1491 1494 1497 1500 1504 1507 1511 1515 1519 1522 1525 1528 1531 1534 1537 1539 1542 1544 1546 1548 1550 1552 1554 1555 1557 1559 1560 1561 1562 1564 1565 1567 1568 1569
1490 1494 1488 1484 1482 1481 1481 1481 1481 1483 1485 1482 1482 1484 1487 1490 1493 1496 1499 1502 1506 1510 1514 1518 1521 1525 1528 1531 1534 1536 1539 1542 1544 1547 1549 1550 1552 1554 1556 1558 1559 1561 1562 1564 1565 1566 1568 1569 1571
1489 1486 1484 1481 1480 1479 1479 1479 1479 1480 1479 1479 1481 1482 1484 1487 1490 1494 1497 1501 1505 1509 1513 1517 1520 1524 1527 1531 1533 1536 1539 1542 1544 1547 1549 1551 1553 1555 1557 1558 1560 1562 1563 1565 1566 1568 1569 1571 1572
1486 1483 1480 1478 1477 1476 1476 1477 1477 1477 1477 1479 1480 1483 1485 1486 1490 1494 1497 1501 1504 1508 1512 1515 1519 1523 1527 1530 1533 1536 1539 1542 1544 1547 1549 1552 1553 1555 1557 1559 1561 1562 1564 1566 1567 1569 1570 1571 1573
1483 1481 1479 1476 1475 1474 1475 1475 1477 1475 1476 1477 1479 1481 1484 1487 1490 1493 1496 1499 1502 1506 1510 1514 1518 1522 1525 1529 1532 1535 1538 1541 1544 1547 1549 1552 1554 1556 1558 1559 1561 1563 1565 1566 1568 1569 1571 1572 1573
1481 1481 1479 1475 1474 1474 1475 1478 1475 1474 1475 1477 1479 1481 1485 1488 1490 1492 1494 1497 1501 1505 1509 1512 1516 1520 1524 1527 1531 1535 1538 1541 1544 1547 1549 1552 1554 1556 1558 1560 1562 1563 1565 1567 1568 1570 1571 1573 1574
1481 1486 1488 1478 1474 1474 1479 1484 1474 1473 1474 1476 1479 1481 1483 1486 1488 1491 1494 1497 1500 1504 1507 1511 1514 1518 1521 1525 1529 1533 1537 1540 1543 1546 1549 1551 1554 1556 1558 1560 1562 1563 1565 1567 1568 1570 1571 1573 1574
1492 1496 1492 1483 1475 1475 1478 1481 1473 1474 1474 1476 1477 1479 1481 1484 1487 1489 1492 1495 1498 1502 1505 1508 1512 1515 1519 1524 1528 1531 1535 1538 1541 1545 1548 1550 1553 1555 1557 1559 1561 1563 1565 1567 1568 1570 1571 1573 1574
1497 1494 1492 1489 1478 1476 1479 1479 1474 1473 1474 1475 1476 1478 1480 1482 1484 1487 1490 1493 1496 1500 1503 1506 1509 1512 1517 1521 1526 1529 1533 1537 1540 1543 1546 1549 1552 1554 1556 1559 1561 1562 1564 1566 1568 1569 1571 1572 1574
1487 1490 1493 1486 1476 1477 1479 1479 1475 1473 1475 1475 1476 1477 1478 1481 1484 1486 1489 1492 1494 1496 1500 1503 1507 1510 1514 1518 1522 1525 1529 1534 1537 1541 1544 1547 1550 1553 1555 1557 1559 1561 1563 1565 1567 1569 1570 1572 1573
1486 1490 1490 1482 1475 1477 1480 1480 1475 1473 1473 1473 1474 1475 1477 1480 1482 1484 1486 1489 1491 1493 1497 1500 1504 1507 1511 1515 1519 1523 1527 1532 1536 1539 1542 1545 1548 1551 1553 1555 1558 1560 1562 1564 1566 1568 1569 1571 1572
1485 1488 1486 1485 1479 1477 1481 1485 1479 1474 1473 1473 1473 1474 1475 1477 1479 1482 1484 1486 1488 1491 1494 1498 1501 1504 1508 1512 1517 1521 1526 1529 1533 1536 1540 1543 1546 1549 1551 1553 1556 1558 1560 1563 1564 1566 1568 1569 1571
1487 1477 1478 1481 1488 1495 1488 1501 1483 1478 1475 1472 1471 1472 1472 1475 1477 1480 1482 1484 1486 1489 1492 1495 1498 1502 1506 1509 1513 1517 1521 1525 1529 1533 1537 1541 1544 1547 1549 1552 1554 1556 1559 1561 1563 1565 1566 1568 1569
1476 1471 1475 1480 1488 1496 1493 1499 1492 1480 1477 1472 1470 1470 1471 1473 1476 1478 1480 1483 1485 1488 1490 1492 1495 1499 1503 1506 1510 1514 1518 1522 1527 1531 1535 1538 1541 1544 1547 1549 1552 1554 1556 1559 1561 1563 1564 1566 1568
1467 1474 1481 1490 1497 1507 1496 1500 1497 1484 1475 1470 1468 1469 1470 1472 1475 1477 1480 1482 1484 1486 1489 1491 1493 1496 1499 1503 1507 1511 1515 1519 1523 1527 1531 1535 1538 1541 1544 1547 1549 1552 1554 1557 1559 1561 1562 1564 1566
1469 1487 1506 1507 1515 1511 1497 1499 1494 1473 1469 1468 1467 1468 1470 1471 1474 1476 1479 1481 1483 1485 1487 1489 1491 1494 1496 1500 1503 1507 1512 1516 1520 1524 1528 1531 1534 1537 1541 1544 1547 1549 1552 1554 1557 1559 1560 1562 1563
1470 1480 1504 1513 1515 1510 1499 1500 1483 1469 1466 1465 1466 1467 1469 1471 1473 1476 1478 1479 1481 1484 1486 1488 1489 1491 1494 1497 1500 1504 1509 1513 1517 1521 1525 1528 1531 1535 1538 1542 1544 1547 1549 1552 1554 1556 1558 1559 1561
1470 1477 1477 1498 1505 1510 1504 1493 1477 1467 1467 1466 1467 1468 1469 1470 1472 1475 1477 1479 1481 1483 1484 1486 1488 1490 1492 1495 1498 1501 1505 1510 1514 1518 1522 1525 1529 1533 1536 1539 1542 1544 1547 1549 1551 1553 1555 1557 1558
1458 1469 1485 1498 1512 1514 1502 1496 1489 1473 1470 1468 1469 1469 1470 1471 1473 1474 1476 1478 1480 1482 1483 1485 1487 1489 1491 1493 1496 1499 1503 1507 1511 1515 1518 1522 1525 1529 1532 1536 1538 1541 1544 1546 1548 1550 1552 1554 1556
1464 1471 1481 1493 1496 1510 1511 1500 1473 1469 1467 1468 1468 1468 1469 1471 1472 1474 1476 1478 1479 1480 1482 1483 1485 1487 1489 1491 1494 1496 1500 1504 1508 1511 1515 1518 1522 1525 1529 1532 1535 1538 1540 1543 1545 1547 1549 1550 1552
1454 1463 1474 1487 1497 1499 1503 1496 1466 1465 1465 1466 1467 1468 1470 1471 1473 1474 1476 1477 1478 1479 1480 1482 1484 1486 1488 1490 1492 1494 1497 1501 1504 1508 1512 1515 1519 1522 1525 1529 1532 1535 1537 1539 1542 1544 1545 1547 1548